Previsão horária em Abbottabad

Hoje, 14 Abril, Quarta-feira

Tempo Temperatura Precipitação Vento Pressão Humidade
00:00 +14°C° 0 mm 3 m/s 656 mmHg 65%
01:00 +14°C° 0 mm 3 m/s 656 mmHg 64%
02:00 +13°C° 0 mm 3 m/s 655 mmHg 63%
03:00 +13°C° 0 mm 3 m/s 655 mmHg 62%
04:00 +13°C° 0 mm 3 m/s 655 mmHg 62%
05:00 +13°C° 0 mm 3 m/s 655 mmHg 60%
06:00 +14°C° 0.1 mm 3 m/s 656 mmHg 59%
07:00 +16°C° 0.1 mm 3 m/s 656 mmHg 58%
08:00 +18°C° 0.1 mm 3 m/s 657 mmHg 56%
09:00 +20°C° 0 mm 2 m/s 657 mmHg 49%
10:00 +23°C° 0 mm 2 m/s 657 mmHg 41%
11:00 +26°C° 0 mm 1 m/s 658 mmHg 33%
12:00 +27°C° 0 mm 2 m/s 658 mmHg 32%
13:00 +27°C° 0 mm 2 m/s 657 mmHg 32%
14:00 +28°C° 0 mm 3 m/s 657 mmHg 31%
15:00 +27°C° 0 mm 2 m/s 656 mmHg 33%
16:00 +26°C° 0 mm 2 m/s 656 mmHg 36%
17:00 +26°C° 0 mm 1 m/s 655 mmHg 38%
18:00 +23°C° 0 mm 2 m/s 655 mmHg 44%
19:00 +20°C° 0 mm 2 m/s 655 mmHg 51%
20:00 +18°C° 0 mm 3 m/s 654 mmHg 57%
21:00 +17°C° 0.1 mm 3 m/s 655 mmHg 58%
22:00 +16°C° 0.1 mm 2 m/s 655 mmHg 60%
23:00 +16°C° 0.1 mm 2 m/s 656 mmHg 61%

Amanhã, 15 Abril, Quinta-feira

Tempo Temperatura Precipitação Vento Pressão Humidade
00:00 +15°C° 0.4 mm 2 m/s 656 mmHg 65%
01:00 +14°C° 0.4 mm 3 m/s 656 mmHg 69%
02:00 +14°C° 0.4 mm 4 m/s 656 mmHg 72%
03:00 +14°C° 0.1 mm 4 m/s 656 mmHg 74%
04:00 +13°C° 0.1 mm 5 m/s 655 mmHg 75%
05:00 +13°C° 0.1 mm 5 m/s 655 mmHg 76%
06:00 +13°C° 0.1 mm 4 m/s 656 mmHg 74%
07:00 +14°C° 0.1 mm 3 m/s 656 mmHg 72%
08:00 +14°C° 0.1 mm 3 m/s 657 mmHg 70%
09:00 +16°C° 0.1 mm 3 m/s 657 mmHg 67%
10:00 +17°C° 0.1 mm 4 m/s 657 mmHg 64%
11:00 +17°C° 0.1 mm 5 m/s 658 mmHg 61%
12:00 +18°C° 0 mm 4 m/s 657 mmHg 58%
13:00 +19°C° 0 mm 4 m/s 657 mmHg 55%
14:00 +20°C° 0 mm 4 m/s 657 mmHg 52%
15:00 +20°C° 0 mm 4 m/s 656 mmHg 52%
16:00 +20°C° 0 mm 4 m/s 655 mmHg 52%
17:00 +20°C° 0 mm 4 m/s 655 mmHg 52%
18:00 +18°C° 0 mm 4 m/s 655 mmHg 56%
19:00 +15°C° 0 mm 4 m/s 655 mmHg 61%
20:00 +13°C° 0 mm 3 m/s 654 mmHg 65%
21:00 +13°C° 0.1 mm 3 m/s 655 mmHg 66%
22:00 +13°C° 0.1 mm 4 m/s 655 mmHg 67%
23:00 +13°C° 0.1 mm 4 m/s 655 mmHg 67%

Depois de amanhã, 16 Abril, Sexta-feira

Tempo Temperatura Precipitação Vento Pressão Humidade
00:00 +13°C° 0.3 mm 4 m/s 655 mmHg 70%
01:00 +12°C° 0.3 mm 5 m/s 655 mmHg 74%
02:00 +12°C° 0.3 mm 5 m/s 654 mmHg 77%
03:00 +12°C° 0.2 mm 5 m/s 654 mmHg 77%
04:00 +12°C° 0.2 mm 5 m/s 654 mmHg 77%
05:00 +12°C° 0.2 mm 5 m/s 654 mmHg 77%
06:00 +13°C° 0.1 mm 5 m/s 654 mmHg 75%
07:00 +13°C° 0.1 mm 4 m/s 655 mmHg 73%
08:00 +14°C° 0.1 mm 4 m/s 655 mmHg 71%
09:00 +15°C° 0.1 mm 4 m/s 655 mmHg 67%
10:00 +17°C° 0.1 mm 4 m/s 656 mmHg 64%
11:00 +17°C° 0.1 mm 4 m/s 656 mmHg 61%
12:00 +17°C° 0.1 mm 4 m/s 656 mmHg 61%
13:00 +16°C° 0.1 mm 5 m/s 656 mmHg 61%
14:00 +16°C° 0.1 mm 5 m/s 655 mmHg 61%
15:00 +17°C° 0 mm 5 m/s 655 mmHg 60%
16:00 +18°C° 0 mm 4 m/s 655 mmHg 59%
17:00 +18°C° 0 mm 4 m/s 654 mmHg 58%
18:00 +17°C° 0 mm 4 m/s 654 mmHg 60%
19:00 +15°C° 0 mm 4 m/s 654 mmHg 62%
20:00 +14°C° 0 mm 4 m/s 654 mmHg 64%
21:00 +14°C° 0 mm 4 m/s 654 mmHg 64%
22:00 +14°C° 0 mm 4 m/s 653 mmHg 63%
23:00 +14°C° 0 mm 4 m/s 653 mmHg 63%

17 Abril, Sábado

Tempo Temperatura Precipitação Vento Pressão Humidade
00:00 +13°C° 0.8 mm 3 m/s 653 mmHg 71%
01:00 +13°C° 0.8 mm 2 m/s 653 mmHg 79%
02:00 +12°C° 0.8 mm 2 m/s 653 mmHg 88%
03:00 +12°C° 2.8 mm 2 m/s 653 mmHg 89%
04:00 +12°C° 2.8 mm 2 m/s 653 mmHg 91%
05:00 +12°C° 2.8 mm 2 m/s 653 mmHg 93%
06:00 +13°C° 0.7 mm 2 m/s 653 mmHg 90%
07:00 +12°C° 0.7 mm 3 m/s 654 mmHg 88%
08:00 +12°C° 0.7 mm 3 m/s 654 mmHg 85%
09:00 +14°C° 0.4 mm 2 m/s 655 mmHg 82%
10:00 +14°C° 0.4 mm 2 m/s 655 mmHg 80%
11:00 +15°C° 0.4 mm 1 m/s 655 mmHg 77%
12:00 +15°C° 0.8 mm 2 m/s 655 mmHg 76%
13:00 +15°C° 0.8 mm 2 m/s 655 mmHg 74%
14:00 +16°C° 0.8 mm 2 m/s 655 mmHg 73%
15:00 +16°C° 0.3 mm 2 m/s 655 mmHg 71%
16:00 +17°C° 0.3 mm 2 m/s 655 mmHg 68%
17:00 +17°C° 0.3 mm 2 m/s 655 mmHg 65%
18:00 +16°C° 0 mm 2 m/s 655 mmHg 69%
19:00 +14°C° 0 mm 3 m/s 655 mmHg 73%
20:00 +12°C° 0 mm 3 m/s 655 mmHg 77%
21:00 +12°C° 0 mm 3 m/s 655 mmHg 76%
22:00 +12°C° 0 mm 3 m/s 655 mmHg 76%
23:00 +11°C° 0 mm 3 m/s 655 mmHg 75%

18 Abril, Domingo

Tempo Temperatura Precipitação Vento Pressão Humidade
00:00 +11°C° 0.1 mm 3 m/s 655 mmHg 74%
01:00 +11°C° 0.1 mm 3 m/s 655 mmHg 73%
02:00 +11°C° 0.1 mm 3 m/s 654 mmHg 73%
03:00 +10°C° 0 mm 3 m/s 654 mmHg 72%
04:00 +10°C° 0 mm 3 m/s 654 mmHg 71%
05:00 +10°C° 0 mm 3 m/s 654 mmHg 70%
06:00 +13°C° 0.2 mm 2 m/s 655 mmHg 66%
07:00 +14°C° 0.2 mm 2 m/s 655 mmHg 62%
08:00 +16°C° 0.2 mm 2 m/s 656 mmHg 59%
09:00 +18°C° 0.4 mm 1 m/s 656 mmHg 55%
10:00 +20°C° 0.4 mm 1 m/s 656 mmHg 51%
11:00 +21°C° 0.4 mm 1 m/s 657 mmHg 48%
12:00 +20°C° 1.3 mm 2 m/s 656 mmHg 52%
13:00 +19°C° 1.3 mm 2 m/s 656 mmHg 56%
14:00 +19°C° 1.3 mm 3 m/s 655 mmHg 61%
15:00 +17°C° 3.4 mm 3 m/s 655 mmHg 68%
16:00 +14°C° 3.4 mm 4 m/s 655 mmHg 74%
17:00 +13°C° 3.4 mm 5 m/s 655 mmHg 81%
18:00 +11°C° 0.1 mm 4 m/s 654 mmHg 81%
19:00 +10°C° 0.1 mm 4 m/s 654 mmHg 81%
20:00 +8°C° 0.1 mm 4 m/s 653 mmHg 81%
21:00 +8°C° 0 mm 4 m/s 653 mmHg 78%
22:00 +10°C° 0 mm 4 m/s 653 mmHg 75%
23:00 +10°C° 0 mm 4 m/s 653 mmHg 72%

19 Abril, Segunda-feira

Tempo Temperatura Precipitação Vento Pressão Humidade
00:00 +10°C° 0 mm 4 m/s 653 mmHg 72%
01:00 +9°C° 0 mm 3 m/s 653 mmHg 72%
02:00 +9°C° 0 mm 3 m/s 653 mmHg 72%
03:00 +8°C° 0 mm 4 m/s 653 mmHg 72%
04:00 +8°C° 0 mm 4 m/s 653 mmHg 72%
05:00 +8°C° 0 mm 4 m/s 653 mmHg 71%
06:00 +11°C° 0 mm 3 m/s 653 mmHg 66%
07:00 +13°C° 0 mm 3 m/s 654 mmHg 61%
08:00 +16°C° 0 mm 3 m/s 654 mmHg 56%
09:00 +18°C° 0 mm 2 m/s 655 mmHg 49%
10:00 +20°C° 0 mm 2 m/s 655 mmHg 43%
11:00 +23°C° 0 mm 1 m/s 656 mmHg 36%
12:00 +24°C° 0 mm 1 m/s 656 mmHg 34%
13:00 +24°C° 0 mm 1 m/s 655 mmHg 32%
14:00 +25°C° 0 mm 1 m/s 655 mmHg 30%
15:00 +25°C° 0 mm 1 m/s 655 mmHg 32%
16:00 +24°C° 0 mm 1 m/s 655 mmHg 34%
17:00 +24°C° 0 mm 1 m/s 654 mmHg 37%
18:00 +21°C° 0 mm 2 m/s 654 mmHg 41%
19:00 +18°C° 0 mm 2 m/s 654 mmHg 46%
20:00 +16°C° 0 mm 2 m/s 653 mmHg 51%
21:00 +14°C° 0 mm 3 m/s 653 mmHg 51%
22:00 +14°C° 0 mm 3 m/s 653 mmHg 52%
23:00 +13°C° 0 mm 4 m/s 653 mmHg 52%
Mostrar mais

Necessitamos do seu Consentimento

A Meteoprog e os seus Fornecedores de Serviços podem armazenar e aceder a dados pessoais como cookies, identificadores do dispositivo ou outras tecnologias semelhantes existentes no seu dispositivo e processar estes dados para personalizar conteúdos e anúncios, assim como funcionalidades nas redes sociais e análise de tráfego.

  • Armazenar e/ou aceder a informações no seu dispositivo

    Os cookies, identificadores do dispositivo ou outras informações podem ser armazenados ou acedidos no seu dispositivo, para os fins acima indicados.

  • Anúncios e conteúdos personalizados, medição de anúncios e conteúdos, dados sobre o público-alvo e desenvolvimento de produtos

    Os anúncios e os conteúdos podem ser personalizados com base num perfil. Podem ser adicionados dados adicionais para uma maior personalização dos anúncios e dos conteúdos. A eficácia dos anúncios e dos conteúdos pode ser medida. Podem ser obtidas informações sobre o público que visualizou os anúncios e os conteúdos. Estes dados podem ser usados para desenvolver ou melhorar sistemas, softwares ou a experiência do utilizador.

Ao clicar em "Eu concordo”, permitirá o uso de cookies, identificadores do dispositivo e web beacons mencionados ou outras tecnologias semelhantes. As configurações do navegador do seu dispositivo podem ser alteradas.

Para certos fins, podem ser invocados interesses legítimos ao invés de consentimento. Pode ler mais informação sobre este assunto na nossa Política de Privacidade e Cookies.